User: anonymous   Login
Location: Unspecified
(0.0000°N, 0.0000°E)
Time: 18:44:15
(UTC+00:00)
Language:

DX 1 - Orbit

View from above orbital plane
View from above orbital plane
View from above satellite
View from above satellite

Ground track
Ground track

The orbit data is extracted from the following two-line orbital elements,

1 40071U 14037C   19231.56558286  .00000045  00000-0  13302-4 0  9990
2 40071  98.4335  28.6322 0009161  34.7657 325.4152 14.81283312276413
Epoch (UTC): 19 August 2019 13:34:26
Eccentricity: 0.0009161
inclination: 98.4335°
perigee height: 619 km
apogee height: 631 km
right ascension of ascending node: 28.6322°
argument of perigee: 34.7657°
revolutions per day: 14.81283312
mean anomaly at epoch: 325.4152°
orbit number at epoch: 27641

The dashed part of the orbit path shows where the satellite is in the earth's shadow,  

DLR